Waco, TX

12:23 PM CDT on October 20, 2017 (GMT -0500)
Waco Regional

Weather History for KACT - July, 2013

Change the Weather History Date:

Monday, July 22, 2013

  Actual Average Record
Temperature  
Mean Temperature 88 °F 86 °F  
Max Temperature 97 °F 97 °F 106 °F (1974)
Min Temperature 78 °F 75 °F 61 °F (1970)
Degree Days  
Heating Degree Days 0 0  
Month to date heating degree days 0 0  
Since 1 June heating degree days 0 0  
Since 1 July heating degree days 0 0  
Cooling Degree Days 23 21  
Month to date cooling degree days 409 437  
Year to date cooling degree days 1378 1377  
Since 1 June cooling degree days 961 925  
Growing Degree Days 38 (Base 50)    
Moisture  
Dew Point 72 °F    
Average Humidity 64    
Maximum Humidity 85    
Minimum Humidity 42    
Precipitation  
Precipitation 0.00 in 0.05 in 1.44 in (1904)
Month to date precipitation 5.00 1.28  
Year to date precipitation 20.71 19.60  
Sea Level Pressure  
Sea Level Pressure 29.93 in    
Wind  
Wind Speed 14 mph (South)    
Max Wind Speed 23 mph    
Max Gust Speed 29 mph    
Visibility 10 miles    
Events      
T = Trace of Precipitation, MM = Missing Value Source: NWS Daily Summary

Daily Weather History Graph

Daily Weather History Graph

Search for Another Location

Airport or City:

Trip Planner

Search our weather history database for the weather conditions in past years. The results will help you decide how hot, cold, wet, or windy it might be!

Date:

Astronomy

Jul. 22, 2013 Rise Set
Actual Time 6:38 AM CDT 8:31 PM CDT
Civil Twilight 6:11 AM CDT 8:58 PM CDT
Nautical Twilight 5:38 AM CDT 9:31 PM CDT
Astronomical Twilight 5:04 AM CDT 10:06 PM CDT
Moon 8:24 PM CDT (7/22) 6:32 AM CDT (7/22)
Length of Visible Light 14h 46m
Length of Day
13h 52m
Full, 100% of the Moon is Illuminated
Jul 22
Full
Jul 22
Full
Jul 29
Last Quarter
Aug 6
New
Aug 14
First Quarter

Hourly Weather History & Observations

Time (CDT) Temp. Heat Index Dew Point Humidity Pressure Visibility Wind Dir Wind Speed Gust Speed Precip Events Conditions
12:51 AM 80.1 °F 84.5 °F 73.9 °F 81% 29.92 in 10.0 mi South 11.5 mph - N/A   Clear
1:51 AM 79.0 °F - 73.9 °F 84% 29.93 in 10.0 mi South 11.5 mph - N/A   Clear
2:51 AM 78.1 °F - 73.9 °F 87% 29.92 in 10.0 mi South 13.8 mph - N/A   Scattered Clouds
3:04 AM 78.8 °F - 73.4 °F 83% 29.94 in 10.0 mi South 11.5 mph - N/A   Mostly Cloudy
3:51 AM 78.1 °F - 73.0 °F 84% 29.92 in 10.0 mi South 13.8 mph 19.6 mph N/A   Mostly Cloudy
4:14 AM 78.8 °F - 73.4 °F 83% 29.94 in 10.0 mi South 15.0 mph - N/A   Scattered Clouds
4:51 AM 78.1 °F - 73.0 °F 84% 29.92 in 10.0 mi South 11.5 mph - N/A   Partly Cloudy
5:37 AM 78.8 °F - 73.4 °F 83% 29.95 in 10.0 mi South 13.8 mph - N/A   Mostly Cloudy
5:51 AM 78.1 °F - 73.0 °F 84% 29.93 in 10.0 mi South 12.7 mph - N/A   Mostly Cloudy
6:51 AM 78.1 °F - 73.0 °F 84% 29.95 in 10.0 mi South 10.4 mph - N/A   Mostly Cloudy
7:31 AM 78.8 °F - 73.4 °F 83% 29.97 in 10.0 mi South 10.4 mph - N/A   Scattered Clouds
7:51 AM 79.0 °F - 73.9 °F 84% 29.96 in 10.0 mi South 12.7 mph - N/A   Clear
8:51 AM 82.0 °F 87.9 °F 73.9 °F 76% 29.96 in 10.0 mi South 12.7 mph - N/A   Scattered Clouds
9:10 AM 82.4 °F 88.2 °F 73.4 °F 74% 29.99 in 10.0 mi South 15.0 mph - N/A   Mostly Cloudy
9:51 AM 86.0 °F 93.0 °F 73.0 °F 65% 29.97 in 10.0 mi SSW 16.1 mph - N/A   Mostly Cloudy
10:23 AM 86.0 °F 91.8 °F 71.6 °F 62% 29.99 in 10.0 mi SSW 11.5 mph - N/A   Scattered Clouds
10:51 AM 89.1 °F 96.0 °F 72.0 °F 57% 29.98 in 10.0 mi South 15.0 mph - N/A   Scattered Clouds
11:51 AM 90.0 °F 96.4 °F 71.1 °F 54% 29.97 in 10.0 mi SSW 10.4 mph 18.4 mph N/A   Scattered Clouds
12:51 PM 93.0 °F 100.1 °F 71.1 °F 49% 29.96 in 10.0 mi South 15.0 mph 23.0 mph N/A   Scattered Clouds
1:51 PM 95.0 °F 102.5 °F 71.1 °F 46% 29.94 in 10.0 mi SW 15.0 mph - N/A   Scattered Clouds
2:51 PM 96.1 °F 102.9 °F 70.0 °F 43% 29.92 in 10.0 mi South 16.1 mph - N/A   Partly Cloudy
3:51 PM 96.1 °F 102.9 °F 70.0 °F 43% 29.90 in 10.0 mi South 15.0 mph - N/A   Scattered Clouds
4:51 PM 97.0 °F 103.5 °F 70.0 °F 41% 29.88 in 10.0 mi South 16.1 mph - N/A   Scattered Clouds
5:51 PM 96.1 °F 101.6 °F 69.1 °F 41% 29.87 in 10.0 mi South 12.7 mph - N/A   Clear
6:51 PM 95.0 °F 100.7 °F 69.1 °F 43% 29.86 in 10.0 mi South 12.7 mph - N/A   Clear
7:51 PM 91.9 °F 96.9 °F 69.1 °F 47% 29.85 in 10.0 mi South 11.5 mph - N/A   Clear
8:51 PM 90.0 °F 95.4 °F 70.0 °F 52% 29.87 in 10.0 mi South 9.2 mph - N/A   Clear
9:51 PM 89.1 °F 94.1 °F 70.0 °F 53% 29.89 in 10.0 mi SSE 8.1 mph - N/A   Scattered Clouds
10:51 PM 87.1 °F 92.0 °F 70.0 °F 57% 29.91 in 10.0 mi South 20.7 mph 28.8 mph N/A   Clear
11:51 PM 84.9 °F 90.1 °F 71.1 °F 63% 29.93 in 10.0 mi South 17.3 mph 26.5 mph N/A   Clear